Wind_Speed
27 26 24 23 24 23 23 22 21 21 21 20 20 20 20 20 19 19 19 19 19 19 18 17 16 15 15 15 14 13 13 13 13 12 13 14 13 12 13 12 12 10
29 27 24 23 24 24 24 23 22 21 21 22 21 19 18 19 19 20 20 19 19 19 19 18 16 15 16 16 15 15 14 14 14 13 14 15 14 13 14 13 13 12
30 28 27 25 24 25 24 22 21 22 21 21 22 21 19 19 19 20 21 20 20 19 19 19 18 16 17 17 16 16 16 15 15 14 15 16 15 14 14 14 13 13
30 29 29 27 24 24 24 22 22 22 22 22 22 22 20 19 19 20 21 21 20 19 19 19 19 18 18 17 17 17 17 16 16 16 16 16 16 15 15 15 14 14
32 31 30 28 26 24 23 24 24 23 23 23 22 22 22 21 20 20 21 21 22 21 20 20 20 19 19 19 18 18 18 16 16 17 18 17 16 16 15 15 15 15
32 32 31 29 28 25 24 25 25 24 24 23 23 22 22 22 22 22 22 22 22 22 21 21 21 20 20 20 19 19 19 17 16 18 19 18 16 16 16 16 17 16
33 33 32 31 29 27 26 25 25 25 24 23 23 23 23 23 24 24 24 23 22 22 22 22 21 21 21 20 20 21 20 18 17 19 20 19 17 17 17 16 17 18
34 33 33 32 30 28 28 27 26 26 26 24 24 24 24 24 24 24 25 25 24 23 23 22 22 22 22 21 22 22 21 19 19 20 21 20 18 18 18 17 17 18
33 33 32 33 32 30 30 29 28 27 27 27 26 25 25 25 25 25 25 26 25 24 24 23 23 23 22 22 23 23 23 21 20 21 22 21 20 19 19 19 18 19
33 33 33 33 33 32 31 31 29 28 28 29 28 27 26 26 26 26 26 26 26 25 25 24 24 23 23 23 24 25 25 23 22 22 22 22 21 21 20 20 20 19
34 34 33 34 34 33 32 32 31 29 29 29 30 29 28 26 26 27 27 27 27 26 26 25 25 25 24 24 24 25 26 25 24 23 23 23 23 22 21 21 21 21
35 35 35 35 35 33 32 32 32 31 30 29 30 30 30 28 27 28 28 28 28 27 26 26 26 26 25 25 25 24 25 26 24 24 24 24 23 23 23 22 22 22
36 36 36 35 35 34 32 32 33 33 32 31 30 30 31 30 29 29 29 29 29 28 27 27 27 26 26 26 26 25 25 26 25 24 24 24 24 24 24 23 23 23
36 36 35 35 34 34 33 33 33 33 33 32 30 30 31 31 30 30 29 28 28 28 28 28 27 26 26 27 28 27 25 26 26 25 24 23 24 24 24 24 24 23
34 33 33 33 33 33 34 34 33 33 32 32 31 30 30 30 30 30 28 28 28 28 29 28 27 27 28 29 29 27 26 26 26 26 26 24 23 24 24 24 24 24
32 32 32 33 33 34 35 35 33 32 31 32 32 30 29 29 30 30 28 28 28 28 28 28 28 28 31 33 33 29 27 26 25 26 26 25 24 23 23 24 24 24
31 31 32 33 34 34 34 34 33 31 30 31 31 30 29 29 29 30 29 28 28 28 28 28 28 30 34 37 38 35 30 26 25 26 26 26 25 24 23 23 24 24
31 30 31 32 33 33 33 32 32 31 30 30 30 30 30 29 29 30 31 29 28 28 28 28 28 32 36 38 40 41 38 31 25 24 25 25 26 25 24 23 23 24
29 29 30 31 32 32 31 30 31 32 31 31 30 30 29 29 30 30 30 30 29 28 29 29 28 31 37 40 40 42 42 38 29 24 24 25 25 25 24 24 23 23
29 29 30 30 30 30 30 30 32 33 32 30 29 29 28 29 29 30 30 30 30 29 29 29 29 31 35 40 41 41 43 42 35 26 23 23 24 24 24 24 24 23
31 31 29 28 28 28 29 29 30 31 31 29 28 27 28 28 28 29 30 30 30 29 29 30 30 32 35 38 41 41 41 42 39 31 25 24 24 24 24 24 25 25
32 31 29 28 27 27 28 29 29 30 29 29 28 27 27 27 28 30 30 30 30 30 30 31 31 33 37 38 40 40 40 42 41 35 30 28 25 24 25 25 26 27
31 30 28 27 27 28 29 30 30 30 29 29 29 28 28 28 28 29 30 30 31 31 32 32 31 33 38 41 41 40 40 42 42 35 31 30 28 25 25 26 29 30
28 27 26 26 28 29 30 30 30 29 28 28 29 29 29 29 28 28 28 29 31 32 33 33 31 33 38 42 43 43 42 43 41 34 31 31 29 27 28 29 30 32
26 27 27 28 29 30 30 29 28 27 26 27 28 28 29 28 27 27 28 29 30 32 33 33 32 32 37 41 44 44 44 43 38 32 30 30 29 29 31 32 31 31
26 28 29 29 29 28 28 27 26 26 26 27 28 27 27 27 27 28 28 29 29 30 31 32 32 32 34 39 42 44 46 44 37 31 31 32 31 31 31 32 32 31
Wind_Direction
213 214 214 210 210 211 211 211 210 209 209 210 213 215 215 215 213 211 210 210 209 210 213 215 218 223 222 219 219 218 215 216 216 215 210 204 201 201 202 203 205 210
214 215 215 214 211 210 210 210 209 209 209 211 214 215 214 214 212 210 208 208 209 210 212 214 215 218 219 217 215 215 215 215 215 215 210 205 202 202 202 203 205 207
211 213 214 215 213 210 209 209 208 210 212 212 213 213 212 211 210 209 208 209 211 213 213 213 212 212 215 215 213 215 216 214 216 216 212 206 203 204 203 203 206 205
208 211 214 215 215 210 207 206 208 210 212 213 213 213 212 210 209 208 208 210 212 213 212 212 211 208 209 210 211 217 218 216 217 216 214 209 203 205 206 204 207 206
206 209 211 213 214 209 204 206 209 209 210 212 212 211 210 209 208 208 208 211 213 215 214 211 210 207 206 205 208 217 219 216 217 216 214 211 204 205 208 206 207 206
203 206 208 211 212 208 205 207 209 208 210 212 211 210 209 208 208 209 209 210 213 216 215 212 210 207 207 204 205 213 215 213 215 216 215 212 207 207 209 208 207 207
201 203 205 208 209 208 207 208 208 209 211 211 210 209 208 208 209 210 210 211 214 215 214 213 210 207 206 204 204 208 210 209 211 214 216 214 208 208 210 209 207 207
201 201 203 205 208 207 207 208 208 209 210 209 209 210 209 209 210 211 212 212 214 214 213 213 210 207 205 203 203 205 205 207 209 211 214 214 209 209 210 208 207 209
200 201 202 204 206 206 207 209 209 209 209 208 210 211 210 210 211 212 212 212 213 213 211 212 210 207 206 204 204 206 206 207 206 207 209 210 210 211 210 208 208 210
200 201 202 203 205 207 208 208 209 208 208 209 210 212 212 212 212 213 212 211 212 212 210 210 209 207 208 207 207 210 212 210 207 206 207 208 211 212 211 210 209 210
200 202 203 205 206 208 208 208 209 209 209 209 211 212 212 211 212 212 211 211 212 211 209 209 209 208 208 209 210 213 214 213 210 209 209 210 211 213 213 212 211 212
200 202 205 206 208 209 210 209 210 210 210 209 210 211 211 210 211 211 211 211 213 212 209 209 210 210 210 211 212 212 213 214 212 211 212 212 212 214 214 214 214 214
199 201 203 205 207 208 209 210 210 210 210 210 210 210 210 210 210 210 210 211 212 212 211 210 211 211 211 212 213 213 212 213 212 212 213 213 213 215 215 215 216 216
199 200 201 203 204 205 207 208 209 209 209 209 209 209 210 210 210 209 210 211 212 212 212 211 211 212 211 211 213 213 212 213 213 212 212 213 214 215 216 217 217 217
196 197 199 200 200 202 205 207 208 209 208 207 208 208 210 210 210 210 209 209 210 211 212 211 211 212 212 213 213 212 212 213 214 214 214 214 214 215 215 216 217 218
192 194 196 197 198 200 202 205 207 207 207 207 207 208 208 209 209 209 209 209 209 210 210 210 211 213 216 218 218 213 210 212 214 215 215 215 213 213 214 214 216 219
190 192 193 195 197 199 200 202 204 205 206 206 206 207 207 208 207 208 210 210 210 211 211 211 212 216 220 222 223 220 214 211 213 215 215 215 214 213 213 214 215 217
189 191 192 194 196 198 199 200 201 204 205 205 205 206 206 207 207 208 210 211 211 213 214 214 215 220 223 224 225 224 220 215 214 216 215 216 216 215 214 214 214 216
189 190 192 194 195 196 197 197 199 203 204 205 205 206 206 207 208 210 211 211 212 213 215 217 218 221 224 225 225 226 224 220 216 216 218 217 217 217 215 214 213 213
191 193 195 195 195 195 196 198 200 203 205 206 206 206 207 209 210 211 212 213 214 214 216 219 220 221 225 227 227 227 226 223 218 217 220 221 220 219 217 216 214 211
194 196 197 197 196 195 197 200 203 204 206 208 209 209 210 211 212 214 215 216 216 217 219 221 222 222 224 227 228 227 227 224 220 218 221 223 221 219 219 220 218 213
196 198 198 197 196 195 199 203 205 207 208 208 210 212 213 213 214 216 217 217 217 219 221 224 225 224 224 226 227 227 225 222 219 217 220 223 221 219 221 225 225 219
198 198 197 195 195 196 200 204 206 207 207 206 208 211 214 215 215 216 217 217 217 218 220 224 226 225 225 226 226 225 221 218 216 215 219 222 221 221 223 226 228 225
196 195 193 193 195 198 202 204 206 207 206 206 208 212 215 216 216 217 218 218 218 219 220 223 225 225 225 225 225 223 219 215 213 212 215 220 221 222 225 227 228 227
192 193 193 195 197 201 203 204 205 206 207 207 210 214 217 218 219 220 221 221 221 222 222 224 226 227 227 225 224 223 219 213 209 209 212 216 219 221 224 227 227 226
191 194 197 199 200 201 203 204 205 207 208 209 212 214 216 218 218 220 222 223 224 224 224 224 226 229 230 227 224 223 220 213 206 207 211 212 215 219 220 223 224 223
Height
793 795 796 797 799 801 803 805 807 808 810 812 814 815 816 818 820 822 823 824 825 827 828 830 832 834 835 836 838 838 840 841 842 843 843 845 846 846 848 848 849 850
789 791 793 794 795 797 799 801 803 805 807 809 811 812 814 815 817 818 820 821 823 824 825 827 829 831 833 834 835 836 838 839 840 841 842 843 843 844 845 846 847 849
785 787 789 790 791 792 795 798 800 802 804 806 807 809 811 812 814 815 817 818 820 821 822 824 825 828 830 831 833 834 835 837 838 839 840 840 841 842 843 844 845 847
780 782 785 786 788 790 792 795 797 798 801 802 804 806 807 809 811 812 814 815 817 818 820 821 822 824 826 828 830 831 833 834 835 836 838 838 839 840 841 842 843 844
774 778 780 782 785 787 788 790 793 794 797 799 800 802 804 805 807 808 810 812 813 815 817 818 819 821 823 824 826 828 830 831 832 834 835 836 837 838 839 840 841 842
769 772 775 778 781 783 784 786 789 790 793 795 796 799 800 801 803 805 806 808 809 811 813 815 816 817 819 821 822 825 826 828 829 831 832 833 834 835 836 837 838 839
763 766 770 773 776 778 780 782 785 787 789 791 793 795 796 798 799 800 802 804 805 808 809 811 812 814 816 817 819 821 822 824 826 828 829 830 831 832 833 834 835 837
758 761 764 768 771 773 775 778 780 782 785 787 789 790 792 793 795 796 798 800 802 804 805 807 809 810 812 813 815 817 818 820 822 824 826 827 828 829 830 832 833 834
753 756 759 762 765 767 770 773 775 777 780 782 784 786 788 789 791 792 794 795 797 800 801 803 805 807 809 810 811 813 814 816 818 819 822 823 824 826 827 829 830 831
747 750 753 756 759 762 764 767 770 773 775 776 779 781 783 785 786 788 790 791 793 795 797 799 801 803 805 806 807 809 810 812 814 815 817 819 821 822 824 825 826 827
741 745 748 750 753 756 759 762 765 767 770 771 773 776 778 780 782 783 785 786 788 791 793 795 797 799 801 802 804 805 806 808 810 811 813 814 816 818 820 822 823 824
735 739 742 745 748 751 754 757 760 762 764 766 768 770 773 775 777 778 780 782 784 786 789 791 793 795 796 798 800 801 803 804 806 807 809 810 812 814 816 818 819 820
728 732 735 739 742 746 749 752 754 756 758 760 762 765 767 769 771 773 775 777 780 782 784 787 788 791 792 794 796 797 799 800 802 804 805 806 808 810 812 813 815 816
722 726 729 733 737 741 744 747 748 751 753 755 758 760 762 764 766 768 770 773 775 777 780 782 784 786 788 789 791 793 795 796 798 800 801 802 804 805 807 809 811 812
717 721 725 729 732 735 739 741 743 746 748 751 753 755 757 759 762 764 767 768 771 773 775 777 780 781 782 784 786 788 791 792 794 796 797 798 800 801 803 805 806 808
713 717 720 723 727 729 732 735 738 742 744 746 748 750 752 755 758 760 762 764 766 768 770 772 774 775 776 778 781 784 786 788 790 792 793 794 796 797 798 800 801 803
708 712 714 717 721 724 727 730 734 737 740 742 744 746 748 751 753 755 757 759 761 763 765 767 768 769 771 773 776 779 782 784 786 787 789 790 791 792 794 795 797 799
704 707 710 713 716 719 722 726 730 733 736 738 739 742 744 746 748 750 752 754 756 758 760 761 762 763 764 767 770 773 776 779 781 783 784 785 787 788 789 791 792 794
700 703 706 708 711 714 718 722 726 728 730 733 735 737 740 742 744 746 747 750 751 753 754 756 757 757 758 761 764 767 770 774 777 779 780 781 782 784 785 786 788 790
696 699 701 704 707 711 715 718 721 723 725 729 731 734 736 737 740 742 743 745 746 748 749 750 751 752 753 755 758 761 765 769 772 775 776 777 778 780 781 782 783 784
691 694 697 701 705 709 712 714 717 719 722 725 728 730 732 734 736 738 739 740 742 743 744 745 746 747 748 750 753 757 760 764 768 771 772 773 774 775 776 778 779 780
684 688 692 696 701 705 707 710 713 715 718 721 724 726 728 729 731 732 733 735 737 739 739 739 740 742 743 744 748 752 756 760 763 765 767 767 768 769 771 773 774 775
681 685 689 693 696 699 701 704 706 709 713 716 718 721 722 723 725 726 728 729 731 732 733 733 734 736 737 739 742 745 750 753 756 759 760 761 763 764 766 768 769 770
678 682 686 689 691 693 696 698 701 705 708 711 713 715 717 718 720 721 723 723 724 724 725 726 728 729 730 732 735 738 742 745 749 752 754 755 757 759 761 762 763 764
675 679 681 684 686 688 691 694 698 702 704 707 709 710 712 714 716 717 718 718 718 719 720 721 723 724 724 726 729 732 736 739 743 745 747 749 751 753 755 756 757 758
671 674 676 679 681 684 687 691 694 697 699 702 703 705 707 709 710 711 712 712 713 715 716 717 718 719 720 721 724 727 730 734 737 738 739 741 744 746 747 749 750 752